Погода во Вронках

Польша     52°42′23″N   16°22′53″E
темп.,
°C
ветер,
м/с
пор.,
м/с
влажн.,
%
обл.,
%
осадки,
мм/ч
давл.,
гПа
погр.,
м
25 февраля, чт
чт2501:00+8зюз33911 0.0 103053
04:00+8юз23930 0.0 102938
07:00+7ююз34930 0.0 102864
10:00+12юз36740 0.0 1027283
13:00+16юз58600 0.0 1026455
16:00+15юз48640 0.0 1025383
19:00+11зюз39810 0.0 1026157
22:00+9зюз38910 0.0 1026190
26 февраля, пт
пт2601:00+9з410930 0.0 1027294
04:00+7зсз399667 0.0 1027283
07:00+5зсз379683 0.0 1028215
10:00+8з4876100 0.0 1028496
13:00+9зсз5962100 0.0 1028885
16:00+8зсз4866100 0.0 10271040
19:00+5з4108276 0.0 1028301
22:00+4зсз4118245 0.1 1028405
27 февраля, сб
сб2701:00+3зсз5128931 0.1 1028429
04:00+2зсз5119429 0.0 1028512
07:00+3зсз598964 0.0 1029680
10:00+4сз4882100 0.0 1030701
13:00+6сз467298 0.0 1032802
16:00+8сз366011 0.0 10321051
19:00+3ссз33785 0.0 103482
22:00+1ссз23880 0.0 103432
28 февраля, вс
вс2801:000зсз229130 0.0 103530
04:000зсз23910 0.0 103456
07:000зсз24910 0.0 103498
10:00+4зсз347467 0.0 1034352
13:00+8сз235733 0.0 1034772
16:00+7зсз236637 0.0 1033195
19:00+4сз128638 0.0 103423
22:00+4с0185100 0.0 103622
1 марта, пн
пн101:00+4юв1286100 0.0 103622
04:00+3юв238893 0.0 103645
07:00+2ююв228595 0.0 103740
10:00+6ю227110 0.0 1038301
13:00+9ююв23605 0.0 1038860
16:00+8ю23590 0.0 1038791
19:00+4ююв23770 0.0 103843
22:00+3ююв23830 0.0 103965